BST,Max TemperatureF,Mean TemperatureF,Min TemperatureF,Max Dew PointF,MeanDew PointF,Min DewpointF,Max Humidity, Mean Humidity, Min Humidity, Max Sea Level PressureIn, Mean Sea Level PressureIn, Min Sea Level PressureIn, Max VisibilityMiles, Mean VisibilityMiles, Min VisibilityMiles, Max Wind SpeedMPH, Mean Wind SpeedMPH, Max Gust SpeedMPH,PrecipitationIn, CloudCover, Events, WindDirDegrees
2013-6-1,59,52,44,48,41,37,87,68,51,30.30,30.21,30.18,6,6,6,16,9,,0.00,4,Rain,252
2013-6-2,64,50,37,45,41,37,100,68,42,30.45,30.36,30.30,6,6,6,13,7,,0.00,3,,261
2013-6-3,68,56,44,54,49,41,93,77,56,30.51,30.47,30.45,6,6,6,8,5,,0.00,5,,280
2013-6-4,64,56,48,52,49,46,94,74,55,30.51,30.45,30.33,6,6,6,15,7,,0.00,3,,54
2013-6-5,60,54,48,52,49,46,100,89,72,30.33,30.23,30.18,6,5,0,14,8,,0.00,5,Fog-Rain,51
2013-6-6,66,55,44,50,49,45,100,80,49,30.27,30.21,30.18,6,6,3,12,5,,0.00,3,,40
2013-6-7,59,50,41,52,47,41,100,89,72,30.36,30.32,30.27,6,6,1,13,5,,0.00,5,Fog,52
2013-6-8,68,54,39,50,47,39,100,81,49,30.33,30.23,30.15,6,5,0,17,6,,0.00,1,Fog,43
2013-6-9,59,54,50,50,49,46,100,86,67,30.15,30.07,30.01,6,6,6,16,11,,0.00,5,Rain,52
2013-6-10,57,52,46,50,48,46,100,84,72,30.04,29.98,29.92,6,6,6,15,8,,0.00,6,,52
2013-6-11,59,50,42,55,50,43,100,88,72,29.92,29.81,29.71,6,6,4,14,6,,0.00,5,Fog-Rain,65
2013-6-12,64,58,51,55,51,48,100,81,67,29.71,29.61,29.59,6,6,3,18,7,,0.00,5,Rain,234
2013-6-13,60,52,44,48,45,41,100,72,52,29.77,29.62,29.56,6,6,6,17,8,,0.00,3,,260
2013-6-14,64,53,42,50,46,41,100,71,52,29.80,29.75,29.59,6,6,3,21,11,,0.00,4,Rain,220
2013-6-15,59,54,48,50,46,43,100,78,59,29.56,29.48,29.42,6,6,6,24,13,34,0.00,4,Rain,210
2013-6-16,64,56,48,52,49,46,100,80,55,29.98,29.79,29.56,6,6,6,9,7,,0.00,2,Rain,289
2013-6-17,62,55,48,55,52,48,100,89,72,30.06,30.04,30.01,6,6,4,12,6,,0.00,4,,57
2013-6-18,64,58,53,55,53,50,100,83,59,30.04,29.98,29.92,6,6,5,9,5,,0.00,2,Rain,40
2013-6-19,66,57,48,50,47,45,100,70,46,30.04,29.99,29.95,6,6,6,15,8,,0.00,2,,253
2013-6-20,69,58,48,55,51,45,94,77,56,30.04,29.91,29.80,6,6,6,12,6,,0.00,2,,49
2013-6-21,66,62,57,57,53,43,94,75,49,29.80,29.73,29.62,6,6,6,15,5,,0.00,6,Rain,266
2013-6-22,62,56,51,54,50,48,94,82,59,29.59,29.38,29.30,6,6,2,18,10,,0.00,5,Rain,212
2013-6-23,62,55,48,54,49,45,94,78,63,29.92,29.60,29.36,6,6,5,13,8,,0.00,5,Rain,279
2013-6-24,60,54,48,45,43,41,87,65,52,30.24,30.10,29.92,6,6,6,12,8,,0.00,2,Rain,279
2013-6-25,62,52,41,50,46,39,100,74,52,30.39,30.33,30.27,6,6,5,10,6,,0.00,2,Fog-Rain,264
2013-6-26,66,57,48,50,47,43,100,72,46,30.42,30.40,30.39,6,6,6,9,6,,0.00,3,,293
2013-6-27,59,54,48,57,51,45,94,88,76,30.42,30.25,30.12,6,6,2,12,7,,0.00,6,Rain,248
2013-6-28,64,58,51,57,52,41,100,83,62,30.12,30.00,29.89,6,6,4,20,11,28,0.00,6,Rain,255
2013-6-29,60,55,50,54,48,43,88,76,63,30.12,30.10,30.06,6,6,6,16,11,,0.00,6,,252
2013-6-30,66,58,51,55,52,46,94,78,60,30.09,29.94,29.86,6,6,5,28,16,34,0.00,6,Rain,243